Wind_Speed
35 33 33 35 37 38 38 38 38 39 40 40 41 40 37 37 36 33 31 31 29 28 30 30 28 26 25 24 23 23 23 22 21 20 20 19 20 21 22 24 24 22 19 18 18 19 20 20 20 19 18 17 16 16 16 15 15 16 18 18 19 20 22 23 21 19 18 17 15 14 14 14 15 16 17 18 19 20 22 22 21 21 21 21 22 24 26
34 34 34 35 37 37 37 37 37 38 39 40 41 40 37 34 33 31 31 33 32 31 31 32 30 29 27 26 25 25 25 23 22 21 20 20 20 22 24 25 25 24 23 22 22 22 22 22 23 23 21 20 19 19 19 18 17 19 20 18 16 18 20 21 20 20 18 16 15 14 14 15 16 17 18 20 20 21 22 22 20 20 21 21 22 24 26
34 33 33 34 35 35 35 36 37 38 39 40 40 40 39 35 32 29 28 29 32 33 33 32 32 30 29 27 26 26 25 24 23 22 21 21 22 23 25 26 25 24 24 24 25 25 24 24 25 25 24 22 21 21 21 20 20 22 21 18 16 17 19 20 21 21 18 17 17 16 17 18 19 18 20 22 22 22 23 22 22 23 24 24 26 27 27
34 33 33 33 33 33 33 35 36 37 38 39 39 40 40 37 32 28 26 25 26 28 30 31 32 31 30 29 27 26 26 25 24 23 22 22 24 25 26 26 25 25 24 24 25 27 27 27 27 26 26 25 24 23 23 23 24 25 23 20 19 20 21 22 22 21 20 19 19 20 21 22 23 21 21 22 22 21 20 21 24 26 26 27 27 27 26
34 33 32 31 32 32 34 34 35 35 37 38 38 39 41 39 33 28 26 24 23 24 25 25 27 29 31 31 30 28 27 27 26 26 25 26 28 28 28 27 26 25 24 23 23 25 26 28 30 28 27 26 26 26 25 25 26 26 24 22 22 22 23 23 22 21 20 20 19 21 21 22 23 23 22 22 21 20 20 21 23 25 26 27 27 27 27
33 32 30 31 32 33 34 35 34 35 35 36 36 37 40 41 37 32 28 27 26 26 24 23 22 23 26 29 32 33 32 32 31 30 29 30 31 30 29 28 26 25 25 23 22 23 24 27 30 31 29 27 27 27 27 27 27 27 25 24 23 23 23 24 23 22 21 20 19 20 20 21 22 22 21 21 19 19 20 21 22 23 24 26 26 26 26
32 32 31 31 32 33 34 34 35 35 35 35 35 35 37 40 40 36 33 30 30 28 26 24 22 21 21 24 28 32 34 34 34 34 33 33 33 32 31 29 28 28 28 25 23 22 23 26 29 31 31 30 29 29 28 28 28 28 27 24 23 23 23 24 24 24 22 21 21 20 20 21 21 21 21 19 17 18 19 19 20 21 22 22 23 23 23
31 33 33 32 32 33 33 33 34 35 35 35 35 33 35 38 39 39 37 34 31 29 27 27 25 24 23 22 24 28 30 32 35 36 34 31 31 31 30 28 29 31 30 28 26 22 21 23 26 28 30 31 31 31 30 29 30 31 29 26 25 25 25 25 26 24 23 22 22 21 21 21 21 20 19 18 18 18 19 19 19 20 20 21 21 21 22
31 33 33 32 33 33 33 33 34 35 34 35 34 32 32 35 38 39 39 36 31 29 28 29 28 26 25 24 23 24 26 28 30 30 30 29 29 28 26 23 25 27 28 28 28 26 23 21 22 25 28 29 30 30 30 30 31 32 29 27 26 26 25 25 24 23 23 23 23 22 22 22 21 20 19 19 20 20 20 20 20 20 20 20 20 21 21
30 31 32 33 33 33 33 33 34 34 34 34 35 33 32 34 38 39 38 34 31 29 29 29 28 27 25 23 22 21 22 23 23 23 24 25 26 26 24 21 20 20 21 22 24 28 28 26 24 25 27 28 28 28 28 29 31 31 27 25 24 25 24 24 23 23 24 24 24 24 23 22 21 20 21 21 21 21 22 21 21 20 20 20 21 21 21
29 30 31 32 32 33 34 33 33 33 32 32 33 33 31 32 36 38 37 34 31 29 29 28 27 26 24 22 21 20 21 22 21 21 22 24 24 25 24 21 18 16 17 18 19 22 26 29 29 29 29 29 29 28 28 29 30 29 27 25 24 24 24 23 23 23 25 26 25 23 21 21 21 21 21 21 22 22 22 21 20 20 21 21 21 21 21
28 28 29 29 30 31 32 33 33 32 32 31 31 31 32 32 33 35 37 36 33 31 30 30 29 26 23 22 23 23 23 24 24 24 24 25 25 25 24 22 20 18 19 19 20 21 23 26 26 26 28 29 28 28 29 30 29 28 27 26 25 24 23 22 22 23 25 27 25 21 19 20 21 20 21 21 22 22 21 21 21 21 21 21 21 21 19
28 27 26 26 27 29 30 31 32 31 31 31 30 30 32 33 31 31 34 36 35 33 32 31 30 27 25 26 27 27 26 25 25 26 26 27 26 26 25 24 24 23 23 22 23 24 24 24 23 24 26 28 28 29 29 28 27 28 26 24 23 22 21 21 21 22 22 23 21 18 18 20 20 20 22 22 22 22 21 21 21 21 21 21 20 19 18
26 25 24 24 25 26 27 28 29 30 30 29 29 30 32 33 32 31 32 33 34 35 34 34 33 31 30 30 30 30 29 27 27 27 28 29 29 27 26 26 27 27 26 26 26 25 24 23 24 25 27 27 28 28 28 27 26 26 24 22 22 22 21 20 21 19 18 18 17 17 18 19 20 22 22 22 22 22 22 21 21 21 21 20 20 19 18
24 23 22 22 22 23 24 25 26 28 28 28 29 30 32 33 33 32 31 30 32 34 36 37 36 35 34 35 34 34 33 32 31 30 29 30 30 29 29 28 28 27 26 26 26 26 24 23 23 25 26 27 27 28 27 27 27 25 22 21 22 22 21 21 21 20 19 18 18 19 20 21 22 22 22 22 22 22 22 21 21 20 20 20 20 19 19
23 22 22 22 22 21 22 23 24 26 28 29 30 30 31 32 33 32 32 31 31 32 34 35 35 34 34 35 36 36 36 35 34 33 32 31 31 31 30 28 26 25 25 25 26 26 24 23 23 24 25 26 27 28 27 27 26 24 23 23 22 22 22 21 21 21 20 20 20 21 22 23 23 22 22 23 23 22 22 21 20 21 21 21 20 20 19
21 22 22 22 23 21 20 21 22 25 27 29 30 31 31 33 34 34 34 33 32 32 33 33 33 32 32 34 34 34 34 34 33 32 31 30 30 31 31 29 27 25 23 23 25 26 26 25 24 24 24 25 26 27 27 26 24 23 24 24 23 23 22 21 21 21 21 21 22 22 22 23 22 23 23 23 23 22 21 20 20 21 21 20 20 20 19
21 22 22 22 22 22 20 20 21 23 24 25 26 27 29 31 34 36 36 36 35 35 34 34 33 33 33 34 34 33 33 33 32 31 30 28 28 31 33 32 30 28 24 23 24 25 26 26 25 25 25 26 26 26 25 24 23 22 23 23 22 22 21 21 22 22 22 23 22 22 22 22 23 23 23 23 22 21 20 20 20 21 20 20 20 19 19
22 22 23 23 22 22 21 21 21 22 22 22 22 23 24 26 29 33 35 36 37 37 37 36 35 34 34 34 34 34 35 35 35 34 33 31 29 30 33 35 35 34 31 27 25 27 28 28 27 27 27 28 29 28 26 24 23 22 22 22 21 21 21 22 23 23 24 24 23 23 22 22 23 23 23 22 21 20 20 20 20 20 20 20 19 19 18
23 23 23 22 22 22 21 22 22 21 21 22 22 22 22 22 23 25 28 30 33 35 36 37 37 37 37 37 37 37 38 38 38 38 38 36 33 31 33 36 39 40 39 35 30 29 31 31 31 31 31 31 32 31 29 26 23 23 23 22 22 22 22 23 24 25 25 24 23 22 22 22 23 23 22 21 20 19 19 20 20 20 20 19 19 19 18
25 25 25 24 24 23 23 23 23 22 22 22 22 22 22 22 22 22 22 23 25 27 30 32 33 35 36 37 38 40 40 40 41 40 40 38 36 34 34 37 41 43 43 41 36 33 32 33 33 33 34 34 33 31 29 26 24 24 24 24 23 23 24 24 25 25 24 23 22 22 22 23 23 22 22 21 20 19 20 20 20 20 19 19 18 18 19
28 28 27 27 26 25 25 25 24 24 24 24 24 24 23 23 23 23 22 21 21 22 23 25 27 29 31 33 35 36 37 38 40 40 39 37 35 35 35 37 39 42 43 42 40 37 35 35 35 35 35 33 32 30 28 26 26 25 25 25 25 24 24 25 25 24 23 22 22 22 22 23 22 22 22 21 20 20 20 20 20 20 19 19 19 19 19
26 25 25 25 26 26 26 26 25 25 26 26 26 25 25 24 24 23 23 22 22 22 23 23 24 26 28 29 30 31 31 34 37 39 37 34 32 32 34 35 35 37 38 39 39 38 37 37 36 36 35 32 30 30 28 27 27 26 25 25 25 24 24 25 24 23 23 23 23 23 23 22 22 22 21 21 21 21 21 20 20 20 19 19 19 19 20
23 23 22 23 23 24 24 25 25 25 26 26 26 26 25 25 25 24 23 23 23 23 24 24 25 26 27 27 28 28 29 32 33 32 31 30 28 29 30 30 31 32 34 35 36 37 38 38 37 36 35 32 31 31 28 26 25 26 25 25 25 25 25 24 24 23 24 24 23 23 22 22 22 22 21 21 21 21 21 21 21 20 20 20 20 20 20
22 21 21 20 20 20 22 23 23 23 23 23 23 24 24 24 24 24 23 23 23 23 24 25 25 26 27 27 26 26 27 30 31 29 26 25 26 26 26 26 27 29 31 33 34 35 37 38 37 37 36 34 33 32 29 26 26 27 26 26 26 26 25 24 24 24 25 25 24 23 22 22 21 21 21 21 21 21 22 22 22 21 21 20 20 20 20
20 19 18 17 17 18 19 21 22 22 22 21 21 22 22 22 23 23 23 23 22 23 23 24 26 27 28 28 27 26 27 30 33 33 31 27 25 26 26 25 25 26 28 30 32 34 36 37 38 38 38 36 35 35 32 28 27 28 28 27 27 26 26 25 25 26 26 25 24 23 22 22 21 21 21 21 21 22 22 23 22 22 22 22 21 21 21
18 17 16 15 15 16 17 19 20 21 21 22 22 22 22 22 22 23 23 23 23 22 22 23 25 27 28 28 27 27 28 29 32 34 34 31 28 27 27 26 26 26 27 28 30 32 34 36 39 40 39 36 35 34 32 31 30 29 28 28 28 27 27 26 26 26 27 26 26 25 24 22 22 22 22 22 22 22 23 23 23 23 22 22 22 22 22
15 15 14 14 14 14 16 17 19 20 21 22 23 22 22 22 22 22 23 24 24 24 23 23 24 26 27 28 28 27 26 27 28 30 32 33 32 31 29 28 28 28 28 28 28 29 30 32 35 38 38 37 34 31 30 31 32 31 29 29 29 28 28 27 27 28 28 28 27 26 25 23 23 23 23 23 23 23 23 23 23 23 23 23 22 22 22
14 14 14 14 13 14 15 16 18 20 21 22 23 23 23 23 23 23 23 24 25 25 26 26 26 26 27 28 28 27 25 23 24 25 27 29 30 31 31 30 29 28 28 27 27 28 29 30 31 32 35 37 37 34 32 31 31 31 31 31 30 29 29 29 29 29 29 29 29 27 25 24 24 24 24 24 23 23 23 23 23 23 23 23 23 23 23
14 14 15 14 14 14 14 15 17 19 21 23 23 24 24 25 25 25 25 24 24 24 26 27 28 28 28 27 27 26 25 23 22 22 22 24 26 27 29 30 29 28 27 27 27 28 30 31 31 31 32 33 35 36 36 35 33 32 32 31 31 31 30 30 30 30 30 30 29 28 26 25 25 25 25 24 24 23 23 24 24 24 24 24 24 24 24
15 15 15 15 15 15 15 15 16 18 20 22 23 23 24 25 25 26 26 26 24 23 24 26 27 28 29 28 26 25 24 24 23 22 22 22 24 25 26 28 28 27 27 28 29 29 30 31 32 32 32 30 30 33 36 35 34 34 33 31 31 31 31 31 31 31 31 31 30 29 28 27 27 27 26 24 24 24 24 24 24 24 24 24 25 25 25
16 16 16 16 17 17 17 17 17 18 19 20 21 23 24 24 25 26 27 27 26 26 25 26 27 27 28 28 26 25 24 24 24 23 22 22 22 23 24 25 26 27 27 29 30 30 31 31 32 33 33 32 31 31 33 33 32 33 33 33 33 33 33 33 33 32 32 32 31 31 30 30 29 28 27 26 25 24 24 24 24 24 24 25 25 26 26
16 16 17 17 18 18 19 19 19 20 20 21 22 23 23 23 24 25 26 26 27 27 27 28 28 28 28 28 27 26 25 24 24 23 23 23 23 23 24 24 25 25 27 28 29 30 31 31 32 33 33 33 31 30 30 29 29 29 31 32 32 33 33 33 33 34 34 34 33 33 33 32 31 30 29 28 26 25 25 25 25 25 25 25 25 25 26
15 16 17 17 18 19 19 19 19 20 20 22 23 23 23 23 23 24 24 25 25 26 27 27 28 28 28 28 27 27 26 25 24 24 24 24 23 24 24 25 25 26 26 27 29 29 30 31 33 33 32 32 32 30 29 29 30 31 32 33 33 33 33 34 34 35 36 36 37 36 35 34 33 32 31 30 28 27 27 26 27 27 26 26 26 26 28
15 16 17 17 18 19 18 18 18 18 19 20 21 22 22 23 23 23 24 24 25 25 25 26 26 27 27 27 28 27 26 26 25 25 24 24 24 25 25 25 26 26 27 27 28 29 29 31 32 33 32 32 32 33 33 33 32 31 32 33 33 32 33 34 36 38 39 39 39 38 37 37 36 35 34 32 31 29 29 28 29 29 28 28 28 29 31
14 15 15 16 18 19 19 20 19 19 19 18 18 19 20 21 22 23 24 25 25 25 26 25 25 25 26 27 27 28 27 27 26 26 25 26 26 25 25 25 25 26 27 27 28 29 29 30 31 32 31 31 31 33 34 35 34 33 33 32 32 32 33 35 37 39 41 41 41 40 39 39 38 37 36 35 34 32 31 31 31 32 31 30 31 32 33
13 13 13 14 16 17 18 19 20 20 20 19 19 19 19 19 21 22 23 24 25 26 26 26 26 25 25 26 26 27 28 27 27 27 26 26 26 26 26 26 26 26 27 27 28 29 30 31 32 32 31 31 31 32 33 34 35 36 36 35 35 36 37 38 40 41 41 41 42 42 41 41 40 38 38 38 37 34 33 33 34 34 33 33 34 36 35
13 13 13 13 13 14 15 17 18 19 20 20 19 19 19 19 20 21 22 23 24 25 26 26 26 25 25 26 26 27 28 28 27 27 27 27 27 27 26 26 26 27 27 28 29 30 30 31 32 33 32 32 32 32 33 33 34 35 36 37 37 37 36 37 39 43 44 43 44 43 43 42 41 41 41 41 40 37 35 35 35 35 36 37 38 37 34
13 13 13 12 11 11 11 13 15 16 17 18 18 17 17 17 18 19 20 20 21 22 23 24 24 24 25 25 26 27 27 27 27 27 26 27 27 27 28 28 28 28 28 29 30 31 32 33 34 34 35 35 34 35 35 35 35 36 36 38 39 39 37 35 35 37 40 43 45 46 44 44 44 44 44 43 41 39 37 36 36 37 39 40 38 34 30
12 12 12 12 11 10 10 10 12 13 15 16 17 17 16 16 16 16 17 18 18 19 20 21 22 23 23 24 24 25 26 26 25 25 25 25 26 27 28 29 29 29 30 30 31 32 33 33 34 35 35 36 36 37 37 37 37 36 37 38 39 40 40 38 37 35 35 36 38 40 43 46 47 46 45 44 42 38 36 37 38 40 40 37 33 30 27
9 10 10 11 11 11 10 10 10 11 12 13 14 15 16 16 16 15 16 16 17 18 19 20 21 22 22 22 23 24 24 24 24 23 23 24 25 26 27 28 29 29 30 30 31 32 33 34 35 36 36 37 37 37 37 36 36 36 37 38 39 40 40 40 40 38 36 35 34 34 37 42 46 47 46 43 40 37 36 38 38 37 34 32 29 28 27
7 7 8 8 9 9 10 10 10 10 10 11 11 12 13 14 15 16 16 17 17 18 18 19 21 22 23 23 23 23 23 23 23 23 24 25 26 26 27 27 27 28 29 30 31 31 32 32 34 35 36 37 38 37 37 36 36 37 38 39 40 41 41 41 39 37 37 36 34 32 32 36 41 43 42 39 37 36 36 35 33 31 29 29 29 28 27
6 6 7 7 7 7 8 8 8 8 8 9 9 10 11 11 13 14 16 17 18 18 19 20 20 21 22 24 25 26 26 26 26 26 26 27 27 27 27 27 27 27 28 28 29 29 30 31 32 32 33 34 35 35 36 36 37 38 39 40 41 42 42 41 39 38 36 34 32 30 30 32 35 36 36 35 35 35 32 30 28 28 29 29 28 28 27
6 6 6 6 6 6 6 6 6 5 6 7 8 9 9 10 11 12 13 15 16 17 19 20 20 21 22 23 24 26 28 29 29 29 29 29 29 29 28 28 28 28 28 28 28 28 29 30 31 31 31 30 30 31 33 35 36 38 38 39 40 41 41 40 38 36 33 31 29 29 30 31 32 33 34 34 33 30 28 27 27 29 29 28 27 27 27
7 7 7 6 6 7 6 6 6 5 6 6 7 7 8 9 10 11 12 13 14 16 17 19 20 21 22 22 23 24 25 27 29 30 30 30 30 30 30 29 29 29 29 28 28 28 29 30 31 31 30 30 29 29 30 32 33 33 32 32 34 36 37 36 34 31 29 29 28 28 28 29 31 32 32 30 28 26 26 27 28 28 28 27 26 26 26
7 7 7 7 7 7 7 7 7 7 7 7 8 8 8 8 9 9 10 11 13 14 15 17 19 20 22 23 23 24 24 25 27 29 30 31 31 32 32 31 31 30 30 29 28 28 29 30 30 28 26 26 26 26 26 27 27 27 26 26 27 29 30 29 28 28 28 28 28 27 27 27 28 29 28 26 25 25 26 28 28 28 27 26 26 26 28
8 8 7 7 7 7 7 8 8 8 9 9 9 9 9 9 9 10 10 11 11 12 13 14 15 17 19 21 23 24 25 26 27 28 29 30 32 33 33 33 33 32 31 30 29 28 28 28 27 24 22 23 23 24 24 25 25 25 25 24 23 23 24 24 24 25 25 25 24 24 24 24 25 25 25 25 25 26 27 29 29 29 27 27 27 28 29
9 8 8 8 8 8 8 9 9 9 10 10 10 10 11 11 11 11 12 12 13 13 13 13 14 14 15 17 18 20 23 25 27 28 29 30 31 32 33 33 33 33 33 32 31 29 28 28 28 26 25 23 23 23 24 25 25 25 25 24 24 23 22 21 22 23 23 22 22 23 23 24 24 25 25 25 27 28 30 31 30 29 28 27 28 29 30
10 9 9 9 9 10 10 10 10 11 11 11 11 12 12 12 13 13 13 14 14 15 15 15 15 14 14 14 15 16 18 21 23 26 28 30 30 30 31 31 32 32 32 32 32 31 30 29 29 29 28 27 26 25 25 25 25 26 27 27 27 25 23 22 23 23 24 24 25 25 26 26 26 26 27 28 30 32 32 31 29 28 28 28 29 30 31
10 10 10 10 11 11 12 12 13 13 13 12 12 13 13 14 14 15 15 16 17 17 16 16 16 16 16 15 14 14 15 16 18 21 24 27 28 29 29 28 28 28 29 30 31 31 31 30 30 30 29 29 29 28 27 26 26 27 29 30 30 29 27 26 26 26 26 27 28 29 28 27 27 28 30 32 33 32 31 29 28 28 28 29 30 31 31
11 10 10 11 12 12 13 14 14 15 15 15 15 15 15 15 15 16 17 17 18 19 19 18 18 18 18 18 17 16 16 16 16 18 20 23 25 26 27 26 26 27 27 27 27 28 29 30 30 30 30 30 29 29 28 27 27 27 29 31 32 31 30 30 29 28 27 27 28 29 28 28 30 32 33 33 32 30 28 27 27 28 29 30 31 31 32
12 11 11 11 12 13 14 15 16 16 17 17 17 17 17 17 16 17 17 18 18 19 20 20 20 20 20 19 19 19 18 18 17 17 18 19 21 24 25 26 27 27 27 27 26 27 28 29 30 31 31 30 30 28 28 27 27 27 28 30 33 33 32 31 32 32 31 30 30 30 30 31 32 32 31 30 28 27 26 27 27 28 29 30 31 31 32
Wind_Direction
175 180 187 190 191 190 190 192 194 194 195 199 201 200 199 200 201 203 206 206 202 196 193 191 192 194 196 196 195 195 202 210 215 217 218 216 209 202 202 203 201 206 215 218 217 215 213 212 210 210 211 208 207 210 213 219 226 229 231 228 225 227 225 219 224 242 249 248 250 254 258 261 261 261 263 265 266 266 266 268 270 274 278 283 287 288 287
175 177 183 189 192 192 191 192 194 195 195 198 199 196 193 194 197 202 208 210 207 203 200 197 196 199 201 202 201 201 205 212 217 221 224 227 224 215 209 210 214 221 228 227 221 215 213 212 212 214 215 213 212 213 215 221 228 235 241 241 236 235 231 226 234 249 253 249 249 252 258 263 266 271 273 271 269 268 268 269 269 272 278 285 290 290 288
175 178 183 188 191 192 193 193 194 194 196 199 200 196 192 190 193 197 204 210 211 210 208 204 201 202 203 205 206 207 209 214 219 223 227 231 231 225 218 218 223 230 235 232 224 218 216 214 213 216 218 217 218 219 220 224 231 237 242 247 247 241 234 237 246 253 253 252 251 252 260 264 267 274 277 274 272 268 265 265 267 273 278 281 283 285 285
176 179 184 187 189 191 194 195 195 196 198 200 200 199 195 191 192 195 198 203 210 214 215 214 211 208 209 209 209 209 212 214 218 222 226 228 228 226 224 226 234 240 238 232 225 222 222 218 214 216 219 219 219 221 224 228 234 238 241 243 247 244 240 241 247 249 251 254 255 257 263 266 266 271 276 277 274 269 265 264 266 270 273 274 277 279 281
178 179 182 185 187 189 192 194 196 198 200 201 201 201 198 194 194 196 197 200 207 215 220 222 221 218 217 216 215 214 216 218 220 222 223 225 227 228 230 235 244 243 235 229 225 224 224 220 216 215 218 219 220 221 224 229 235 241 243 242 244 246 245 243 243 247 252 256 257 258 262 265 264 265 269 271 271 267 266 267 268 268 269 270 273 276 279
179 179 180 183 187 190 191 192 194 197 200 202 203 203 202 198 198 200 203 205 211 217 221 226 229 227 224 222 221 222 223 225 226 223 221 224 228 231 235 241 245 239 231 228 227 226 225 221 217 217 218 221 223 224 226 230 236 244 246 241 241 245 246 245 247 253 257 259 260 259 260 261 261 262 264 268 269 265 264 266 269 270 271 272 275 278 281
178 179 182 185 187 190 193 193 194 196 199 201 203 205 205 203 202 206 208 210 215 219 219 221 223 221 219 220 223 225 226 227 223 215 212 217 226 232 237 241 239 232 228 227 228 228 226 221 218 219 220 223 225 227 229 233 239 246 247 244 244 247 247 248 252 257 260 261 261 261 260 260 260 263 266 268 266 262 262 266 269 271 273 275 278 281 284
179 182 184 187 188 190 193 195 196 198 200 202 203 205 206 205 205 209 213 214 217 219 218 217 217 217 217 218 220 221 221 221 216 209 207 213 223 229 231 232 233 232 231 232 232 230 226 222 220 220 222 225 227 230 233 236 240 245 247 248 249 249 248 248 249 252 254 256 259 260 261 262 262 263 265 266 264 265 269 273 274 274 276 279 282 284 287
181 184 184 187 190 193 194 195 198 200 202 205 206 206 209 208 206 209 214 215 214 216 219 218 216 219 222 223 223 221 218 218 216 213 213 217 223 225 226 232 240 242 241 242 240 235 228 222 221 223 226 228 230 232 235 237 241 245 249 249 248 249 250 249 249 252 254 257 259 259 260 263 263 261 262 264 265 269 274 275 275 276 279 283 287 290 293
182 184 185 188 191 194 196 197 199 201 203 206 207 206 209 211 209 209 213 214 212 214 220 222 220 220 223 227 230 228 223 221 219 216 215 217 222 226 231 240 245 243 242 243 239 234 230 227 228 231 232 234 234 234 237 238 241 246 249 247 246 248 250 252 255 258 261 262 261 258 258 259 258 258 260 263 267 271 274 274 276 280 285 290 294 296 298
185 185 186 191 193 195 198 199 201 203 203 205 207 205 207 212 213 212 213 214 214 215 219 224 225 224 224 227 230 230 226 222 215 209 209 213 218 225 231 235 233 231 235 239 237 233 230 231 234 237 236 236 236 236 238 240 244 247 249 248 248 248 250 253 255 259 263 261 256 253 256 256 254 257 260 264 269 273 274 277 281 286 291 294 296 296 296
188 188 190 195 197 199 201 202 204 206 205 205 206 206 208 213 214 215 215 216 217 218 219 223 226 226 225 226 227 227 224 220 213 208 207 210 215 221 227 231 234 238 240 240 238 235 231 231 235 236 235 235 236 236 237 241 246 249 250 252 253 252 251 253 255 262 264 254 244 244 254 255 254 258 263 267 272 274 276 281 285 289 292 293 293 293 292
194 195 197 201 204 205 206 207 208 208 208 207 207 208 212 214 215 217 218 219 220 221 221 224 228 228 228 229 232 231 229 226 222 217 214 214 216 220 227 234 242 248 249 243 238 235 234 235 236 235 233 233 233 234 236 241 247 249 249 250 252 252 253 256 260 264 261 249 242 247 253 253 256 263 268 271 273 274 278 282 286 289 291 291 290 288 287
196 197 200 205 208 210 211 212 212 212 211 212 212 213 215 217 216 219 221 221 223 225 225 226 229 232 234 237 240 240 238 236 233 229 225 224 225 228 233 240 245 249 248 242 236 234 234 235 234 234 234 234 234 236 239 243 247 250 249 249 251 253 255 257 259 259 255 250 253 254 252 255 263 268 270 271 272 275 279 282 286 288 289 288 286 285 284
194 195 199 203 206 210 213 214 215 215 214 214 215 216 218 219 218 220 222 222 224 227 228 230 233 236 239 241 242 242 241 242 242 240 237 234 234 235 238 242 245 245 241 236 233 232 232 233 234 234 235 236 238 240 243 245 248 250 250 249 250 252 254 254 253 254 254 254 255 254 257 263 267 267 269 270 272 276 280 283 286 287 285 284 283 283 285
198 199 201 204 205 207 211 214 215 215 215 216 217 218 221 221 221 222 223 224 225 227 229 232 234 236 239 241 242 243 244 245 246 245 242 240 239 237 236 238 237 233 230 230 232 233 233 235 237 237 237 239 241 242 245 248 248 248 249 249 249 250 251 252 251 251 253 253 254 256 261 264 264 265 267 270 273 278 282 284 284 282 281 281 281 282 285
204 204 204 207 208 208 210 213 215 216 217 219 221 223 225 225 224 224 225 226 227 228 229 231 233 235 238 241 243 245 246 247 247 246 244 242 239 234 231 230 226 221 222 227 230 233 235 234 235 237 239 241 243 244 247 250 250 248 246 246 246 247 249 252 252 252 253 254 256 258 260 261 262 265 267 270 275 278 280 280 279 279 279 279 279 282 284
206 205 204 207 210 212 213 213 214 216 218 220 223 225 226 227 227 227 227 228 229 230 231 232 234 237 240 242 245 247 249 251 252 252 250 245 237 230 228 227 223 219 221 226 230 234 235 233 233 237 240 243 245 247 249 251 252 249 243 240 242 245 248 250 252 253 254 255 256 257 258 259 262 265 268 272 275 277 277 277 277 277 277 278 279 282 284
207 207 207 208 214 219 220 219 218 218 220 222 223 224 225 226 227 228 229 231 232 233 233 233 235 238 241 244 246 248 251 253 254 255 254 250 242 234 231 230 227 226 227 230 231 233 235 235 236 239 243 245 247 249 249 250 250 245 240 239 242 244 245 247 249 251 253 254 255 256 258 261 264 268 271 273 275 276 277 276 276 276 277 279 280 282 285
208 209 209 212 220 226 227 226 225 224 224 226 225 223 222 222 223 225 227 230 233 234 235 237 238 240 243 245 247 248 250 252 254 255 255 253 249 243 238 236 234 233 234 234 233 232 234 236 238 241 245 248 249 249 249 248 244 238 237 241 243 242 243 245 248 250 252 253 255 258 261 265 268 270 272 275 277 278 277 276 277 278 278 280 281 282 285
217 220 223 225 228 229 228 228 229 231 233 232 229 226 223 220 219 219 220 223 227 230 233 236 238 240 242 244 245 246 247 249 250 252 252 252 251 250 246 242 238 237 237 237 235 233 233 235 238 242 246 248 248 247 246 244 238 235 236 240 240 240 242 245 247 250 252 254 257 261 266 269 270 272 275 278 279 278 277 277 278 278 278 279 280 282 285
227 230 232 231 230 229 227 227 229 233 235 236 235 231 228 224 221 219 217 218 219 222 226 230 234 237 240 242 244 247 249 250 251 250 249 248 249 251 250 247 242 239 238 237 236 235 234 235 238 242 246 247 245 244 243 241 238 237 238 239 240 241 243 246 249 251 254 257 261 265 268 271 273 276 278 280 279 277 276 276 276 276 276 278 280 283 285
224 225 226 225 225 227 227 227 228 231 234 237 238 237 235 230 225 222 220 221 222 223 226 228 231 234 238 240 243 245 245 247 250 251 249 247 246 247 248 248 245 243 240 238 236 234 234 234 237 241 243 243 243 244 243 238 235 236 238 239 241 243 245 248 251 254 256 259 263 267 270 273 275 277 279 279 277 275 274 274 275 275 275 278 281 284 286
216 217 221 224 226 228 229 226 226 228 231 234 237 238 238 235 232 230 229 228 228 227 228 229 232 235 237 238 242 244 239 236 240 246 247 245 245 244 245 246 246 244 242 239 234 231 231 232 234 239 241 241 243 246 244 236 232 234 238 240 242 244 247 251 254 255 257 260 263 267 271 274 276 278 279 277 275 274 274 274 274 275 276 280 282 285 288
212 215 219 222 224 225 223 222 221 222 223 227 230 233 235 236 236 236 235 233 231 229 230 232 234 236 238 238 239 243 241 235 233 236 237 239 243 244 243 244 244 243 242 239 234 230 229 230 233 237 239 240 242 245 244 238 234 235 237 240 243 245 248 251 253 254 256 259 263 268 272 276 278 279 278 276 275 275 275 275 275 276 278 281 284 287 289
209 211 213 215 215 216 216 216 217 217 216 218 221 226 229 231 232 233 232 231 230 230 231 233 233 235 237 238 238 241 243 239 235 233 232 234 239 241 241 242 243 243 242 239 236 232 231 232 234 236 238 239 241 244 243 240 236 235 237 241 244 246 249 250 250 252 255 258 263 268 273 276 279 279 279 278 277 276 276 276 277 278 280 282 284 287 288
204 206 209 211 212 212 213 214 215 215 215 216 217 220 223 225 227 227 227 227 228 228 230 232 233 235 237 238 238 240 241 240 238 236 234 235 237 238 238 241 243 243 242 240 237 235 235 235 236 236 237 239 242 244 242 238 235 236 239 243 245 247 249 249 249 251 255 259 263 268 273 277 280 280 280 279 278 277 278 279 279 279 280 281 283 284 286
205 209 214 217 217 215 214 215 215 216 216 216 216 218 221 223 224 224 225 225 226 228 229 232 234 237 239 238 236 237 238 238 238 238 238 237 237 237 238 239 241 241 241 240 238 235 235 236 236 235 235 238 242 243 239 235 233 236 240 242 245 246 247 247 248 250 254 259 264 269 274 278 280 280 280 279 278 278 278 279 279 279 279 279 280 282 285
210 215 219 220 219 217 217 217 217 216 215 215 215 218 221 223 224 224 225 226 226 227 229 232 234 238 239 238 236 236 238 238 238 239 240 239 238 238 237 237 238 238 239 240 239 236 235 235 235 234 235 238 241 242 240 236 236 238 240 241 243 245 245 245 247 250 254 260 264 269 274 278 279 279 279 279 278 278 278 277 277 278 278 278 279 282 286
214 218 221 220 218 217 218 219 220 220 218 217 217 218 221 225 226 226 226 227 227 227 228 231 234 237 239 239 238 238 239 239 240 242 242 239 237 236 235 233 234 236 238 239 239 238 237 237 236 235 236 239 240 240 239 238 238 239 240 241 242 243 244 245 247 250 254 259 263 268 273 276 277 277 278 279 278 277 276 277 277 278 279 280 281 283 286
217 220 221 221 219 219 221 224 225 225 223 221 221 222 224 227 228 228 228 227 226 226 227 230 233 236 239 240 241 240 240 240 242 244 245 240 236 234 234 232 233 235 237 237 236 236 236 237 237 236 237 239 239 238 237 236 237 237 238 239 240 241 242 244 247 250 254 258 262 267 271 273 274 275 276 277 277 276 276 277 279 280 282 282 282 284 286
220 222 223 223 224 226 229 231 233 231 229 227 226 226 227 228 229 230 229 229 228 227 230 234 236 238 239 241 242 242 242 241 242 243 244 242 238 235 234 234 235 236 236 235 234 234 235 235 236 236 237 238 239 240 239 238 238 238 237 238 239 239 240 242 245 248 252 255 259 264 267 270 272 274 275 275 275 276 277 278 280 281 282 282 284 286 288
223 225 227 229 231 234 236 237 238 236 234 232 231 229 228 228 229 230 231 232 232 232 234 237 238 239 239 241 242 243 243 243 243 243 243 242 240 237 235 235 236 237 236 235 234 234 234 235 236 237 237 237 238 241 241 240 239 239 239 240 240 240 240 242 245 248 251 254 257 261 264 267 270 273 274 274 275 275 276 278 280 281 283 285 287 288 289
227 229 230 231 233 235 236 237 237 237 236 235 234 233 231 230 230 231 233 234 235 236 237 239 240 241 240 240 241 243 244 244 243 244 244 242 240 238 236 236 237 237 237 236 235 235 236 237 238 239 239 239 239 241 242 242 244 246 246 244 242 241 241 243 245 247 249 251 254 257 261 265 269 271 272 273 274 275 277 278 280 282 284 285 287 288 288
231 232 232 232 232 233 233 234 234 235 235 236 236 236 235 234 234 235 235 236 237 238 239 241 243 244 244 243 243 245 245 244 244 244 245 244 242 240 239 239 240 240 240 240 239 238 239 241 242 242 243 243 243 244 244 246 249 252 250 246 243 243 243 244 246 247 248 250 253 256 259 262 265 268 271 272 273 274 277 278 280 281 282 283 284 286 285
234 235 235 236 235 235 235 234 234 234 234 234 235 236 237 238 239 239 239 239 240 240 241 243 245 246 246 246 245 245 245 244 244 243 244 244 244 244 243 242 243 244 243 243 243 243 243 245 245 246 246 246 246 246 247 248 250 253 253 252 251 250 249 248 249 249 250 251 252 254 257 259 261 264 268 270 270 272 274 275 277 278 279 281 283 282 279
236 239 241 241 240 237 235 234 234 233 233 233 234 236 239 241 242 242 241 240 241 241 242 244 245 247 247 247 246 245 245 244 243 242 242 243 244 244 244 244 244 245 245 245 245 245 246 247 248 249 249 248 248 248 249 249 251 252 254 255 256 256 255 254 251 248 248 249 250 252 254 255 257 259 262 264 265 267 269 273 275 278 280 281 280 277 274
241 242 244 246 245 241 237 234 233 233 234 235 236 239 243 246 247 245 242 239 239 240 242 243 244 245 246 246 246 245 244 243 243 242 242 242 242 243 244 245 245 246 246 247 247 248 248 250 250 251 251 251 250 250 250 250 251 252 253 253 253 254 257 258 253 248 246 247 249 251 252 253 253 254 257 259 260 262 265 270 274 278 279 278 275 271 269
245 244 244 245 245 243 239 235 233 233 233 234 236 240 244 247 248 245 242 239 237 238 240 242 243 244 245 245 245 245 245 244 244 243 242 241 241 241 243 244 246 246 247 248 249 249 250 251 252 253 253 253 253 253 252 251 250 250 251 251 252 253 255 258 257 254 252 251 251 251 251 253 253 253 254 256 257 259 263 269 273 276 276 274 270 268 268
244 244 243 243 243 243 240 236 234 233 233 234 237 241 244 247 246 244 241 239 238 237 238 240 242 243 243 243 243 244 245 246 245 244 243 242 241 241 242 243 245 247 248 249 250 251 251 252 254 255 256 256 256 256 256 256 255 254 253 253 254 255 256 258 260 261 262 262 259 256 256 256 255 253 252 254 255 259 264 270 272 273 271 269 267 268 272
236 238 240 240 240 241 240 238 236 236 236 238 241 243 245 246 246 245 242 241 240 239 240 241 242 243 244 243 243 242 242 243 243 244 244 243 242 242 242 242 244 246 248 249 250 251 252 253 254 255 256 257 258 259 260 260 259 258 257 256 256 256 258 260 261 262 265 268 268 264 262 261 258 253 251 253 256 261 267 270 270 269 267 266 268 272 275
225 226 230 232 235 237 237 236 235 235 236 238 241 244 245 246 246 246 245 245 244 243 243 243 244 245 245 245 244 242 240 240 241 243 243 244 244 243 242 242 243 245 246 248 250 250 251 252 253 254 254 254 255 257 259 260 260 259 257 256 256 257 258 259 260 261 264 266 266 263 263 263 258 253 251 254 258 264 267 267 265 263 263 266 270 273 275
225 227 227 225 225 230 233 234 236 239 241 244 247 248 248 247 246 245 246 246 246 247 247 247 247 247 247 246 246 245 244 244 244 245 245 246 246 246 245 245 245 246 247 248 249 249 250 251 252 253 253 253 253 254 257 260 261 261 259 256 255 255 256 258 260 262 262 261 258 257 258 257 254 252 253 257 261 263 263 260 259 260 264 268 270 271 272
218 228 233 234 234 236 237 237 238 243 248 252 254 256 257 256 254 252 251 250 249 249 249 249 250 250 250 250 249 249 248 248 247 247 247 247 247 248 248 248 249 249 250 249 249 250 250 249 250 253 254 252 251 252 255 257 259 259 258 255 254 253 255 257 258 257 253 250 249 250 251 249 249 251 255 257 257 256 255 255 258 262 265 267 269 271 273
210 215 223 231 240 249 255 259 261 263 263 263 262 262 262 263 261 260 260 258 256 254 253 252 252 252 252 253 253 253 252 250 249 248 247 247 247 247 249 250 251 252 253 253 253 252 250 250 252 254 251 246 244 248 252 254 255 257 256 255 253 252 252 250 247 244 241 240 242 245 245 245 247 250 251 250 249 250 253 257 261 264 266 268 271 273 275
228 227 225 227 233 243 254 264 272 276 275 272 270 270 270 271 271 270 269 267 265 263 260 258 256 255 254 253 253 253 253 252 250 248 248 247 247 249 251 252 254 255 256 256 256 255 253 254 257 254 244 237 239 247 252 254 255 255 254 253 249 246 242 239 235 234 235 237 238 239 241 243 245 245 245 246 248 252 257 261 264 266 268 271 273 274 275
239 243 245 246 246 248 252 258 265 270 272 272 272 274 277 279 282 283 284 284 283 280 275 271 267 263 260 258 255 254 253 252 251 250 249 249 249 251 253 255 256 257 257 257 257 255 256 259 261 256 246 240 244 249 253 255 255 253 252 251 249 243 236 232 229 229 230 233 235 238 242 243 244 246 248 252 256 260 264 266 267 268 269 271 272 272 273
240 245 252 259 261 262 261 262 263 266 270 271 272 273 275 277 280 282 285 287 288 288 287 286 282 278 274 270 266 262 258 256 254 252 251 250 251 252 254 256 257 258 258 258 257 256 257 258 259 257 254 251 250 250 251 254 254 251 248 249 249 246 241 236 233 232 233 235 239 242 244 245 247 251 255 260 264 267 268 267 266 267 268 269 270 270 272
244 249 255 261 265 266 268 269 269 270 270 271 271 272 273 275 277 278 280 281 282 284 285 287 287 286 285 283 280 275 270 264 260 258 256 254 253 252 253 255 256 256 256 256 256 256 256 256 257 256 255 253 251 250 250 250 250 248 246 245 245 243 239 235 234 237 240 243 245 246 248 250 253 256 260 264 266 266 265 264 264 265 266 267 268 269 271
244 250 257 262 266 269 271 273 274 275 275 274 274 274 275 276 277 277 277 277 278 278 280 281 283 283 284 284 284 283 281 276 270 265 261 258 255 253 252 252 253 253 252 252 253 252 252 254 255 256 254 251 249 249 249 248 247 246 244 243 242 241 240 239 240 241 243 245 247 250 252 255 258 260 261 261 261 261 261 262 263 264 265 266 267 269 271
243 250 257 263 266 269 271 273 274 276 277 277 277 276 276 276 277 277 278 277 277 276 276 277 278 278 279 280 280 281 282 282 280 275 270 265 261 257 253 249 248 249 250 251 251 251 251 251 252 253 253 252 250 249 249 248 247 244 243 243 243 244 245 248 251 253 253 253 254 255 256 257 258 258 257 256 257 259 261 262 263 263 264 266 268 271 273
249 253 259 263 266 269 271 272 273 275 275 276 277 277 277 276 276 277 278 279 278 277 275 275 275 275 276 277 277 277 277 278 280 281 279 274 269 264 259 252 247 246 248 251 252 252 251 250 249 249 249 249 249 249 249 248 247 244 243 244 244 242 242 244 249 253 255 255 255 255 255 254 253 252 254 256 259 262 263 262 262 263 265 268 270 273 275
Height
5606 5612 5617 5621 5624 5628 5632 5636 5638 5642 5646 5650 5654 5658 5664 5668 5672 5675 5678 5682 5686 5690 5694 5698 5701 5704 5707 5710 5713 5716 5718 5721 5724 5726 5728 5730 5732 5734 5736 5738 5739 5740 5742 5744 5745 5746 5748 5750 5752 5752 5753 5754 5754 5755 5756 5756 5756 5756 5755 5756 5758 5760 5760 5761 5763 5765 5766 5768 5768 5768 5768 5768 5768 5768 5769 5770 5770 5770 5771 5772 5772 5772 5772 5772 5772 5772 5770
5608 5612 5616 5620 5624 5628 5632 5636 5639 5642 5646 5649 5653 5658 5663 5666 5670 5674 5676 5680 5684 5688 5691 5696 5699 5702 5706 5708 5711 5714 5716 5719 5722 5724 5726 5728 5730 5732 5734 5736 5737 5738 5740 5741 5743 5744 5746 5748 5749 5750 5750 5752 5752 5753 5754 5754 5754 5753 5753 5754 5757 5759 5760 5760 5762 5764 5764 5764 5764 5765 5766 5766 5766 5766 5767 5767 5768 5768 5769 5770 5770 5770 5770 5770 5770 5768 5768
5609 5612 5616 5620 5624 5629 5633 5636 5639 5642 5646 5649 5652 5657 5662 5666 5669 5672 5675 5678 5682 5686 5689 5693 5697 5700 5704 5706 5710 5712 5715 5718 5720 5722 5724 5726 5728 5730 5732 5734 5734 5736 5737 5738 5740 5742 5744 5745 5746 5747 5748 5750 5751 5752 5752 5752 5752 5751 5752 5754 5756 5757 5758 5759 5760 5760 5761 5761 5762 5762 5762 5762 5763 5764 5764 5764 5765 5766 5766 5768 5768 5767 5766 5766 5766 5766 5765
5610 5614 5617 5620 5624 5629 5633 5636 5639 5642 5646 5648 5652 5656 5660 5665 5669 5672 5674 5678 5682 5684 5688 5692 5696 5699 5702 5705 5708 5711 5714 5716 5718 5721 5723 5724 5726 5728 5730 5731 5732 5734 5734 5736 5738 5739 5740 5742 5744 5745 5746 5748 5749 5750 5750 5750 5750 5749 5750 5752 5753 5754 5755 5756 5756 5757 5758 5758 5760 5760 5760 5760 5760 5761 5762 5762 5762 5762 5764 5764 5764 5764 5764 5764 5764 5763 5762
5610 5614 5618 5622 5624 5628 5632 5635 5640 5643 5646 5649 5652 5656 5660 5664 5668 5672 5674 5678 5682 5684 5687 5690 5694 5697 5700 5703 5706 5709 5712 5714 5716 5719 5721 5722 5723 5724 5726 5728 5729 5730 5732 5733 5734 5736 5738 5739 5741 5742 5744 5745 5746 5748 5748 5748 5748 5748 5749 5751 5751 5751 5752 5752 5754 5754 5755 5756 5758 5758 5758 5758 5758 5759 5759 5759 5759 5760 5760 5761 5761 5761 5761 5760 5760 5760 5759
5612 5615 5618 5621 5624 5628 5630 5634 5638 5642 5646 5649 5652 5656 5659 5664 5667 5670 5674 5677 5680 5683 5686 5688 5691 5694 5698 5700 5702 5706 5708 5710 5713 5716 5717 5718 5720 5721 5723 5724 5726 5728 5729 5730 5732 5733 5734 5736 5738 5740 5741 5742 5744 5745 5746 5746 5746 5746 5746 5748 5748 5749 5750 5750 5752 5753 5754 5755 5756 5756 5756 5757 5756 5756 5756 5757 5757 5758 5758 5758 5758 5758 5758 5758 5757 5757 5756
5612 5616 5618 5621 5624 5628 5631 5634 5638 5641 5644 5648 5651 5654 5658 5662 5666 5669 5672 5676 5678 5682 5685 5687 5689 5692 5694 5696 5700 5702 5704 5706 5709 5711 5712 5714 5716 5718 5720 5721 5722 5724 5726 5728 5729 5730 5732 5733 5735 5736 5738 5740 5741 5742 5743 5744 5744 5744 5744 5746 5747 5748 5748 5749 5750 5751 5752 5754 5754 5754 5754 5754 5754 5754 5754 5755 5755 5755 5755 5756 5756 5756 5756 5755 5754 5754 5754
5612 5616 5618 5622 5624 5628 5631 5634 5638 5640 5643 5646 5650 5653 5656 5660 5664 5668 5670 5674 5677 5680 5684 5686 5688 5690 5692 5695 5698 5700 5701 5703 5706 5708 5708 5709 5711 5714 5716 5718 5720 5722 5724 5726 5728 5728 5730 5731 5732 5734 5735 5736 5738 5739 5740 5741 5741 5740 5740 5743 5744 5745 5746 5746 5747 5748 5750 5750 5750 5751 5751 5752 5752 5752 5752 5752 5752 5752 5752 5753 5754 5753 5752 5752 5752 5752 5751
5613 5616 5619 5622 5625 5628 5630 5633 5636 5639 5642 5646 5649 5653 5656 5660 5663 5666 5668 5672 5676 5679 5682 5685 5687 5689 5692 5694 5696 5698 5700 5702 5704 5706 5708 5708 5710 5712 5715 5717 5720 5722 5723 5725 5726 5728 5728 5730 5730 5731 5732 5733 5734 5736 5737 5738 5738 5737 5738 5740 5742 5742 5742 5744 5744 5746 5746 5746 5747 5748 5748 5748 5749 5749 5749 5750 5750 5750 5750 5750 5750 5750 5750 5750 5749 5748 5748
5614 5617 5620 5622 5624 5627 5630 5632 5636 5638 5642 5645 5648 5652 5656 5658 5662 5664 5668 5671 5675 5678 5680 5683 5686 5688 5690 5693 5696 5698 5700 5702 5703 5705 5706 5708 5710 5712 5714 5716 5718 5720 5721 5722 5724 5724 5726 5727 5728 5728 5730 5731 5732 5733 5734 5734 5734 5734 5736 5737 5738 5740 5740 5742 5742 5742 5743 5743 5744 5744 5744 5746 5746 5746 5746 5746 5747 5747 5748 5748 5748 5748 5747 5746 5746 5746 5744
5614 5618 5620 5622 5624 5627 5630 5632 5636 5638 5642 5644 5648 5652 5654 5656 5660 5663 5666 5670 5674 5677 5680 5682 5684 5687 5690 5693 5695 5697 5699 5700 5702 5703 5704 5706 5708 5710 5712 5713 5716 5718 5719 5720 5721 5722 5723 5724 5724 5726 5727 5728 5729 5730 5731 5731 5732 5732 5732 5734 5736 5737 5738 5739 5740 5740 5740 5740 5740 5741 5742 5743 5744 5744 5744 5744 5744 5744 5744 5745 5745 5744 5744 5744 5743 5742 5742
5615 5618 5620 5622 5625 5627 5630 5632 5635 5638 5641 5644 5647 5650 5653 5655 5658 5662 5665 5668 5672 5675 5678 5680 5682 5686 5689 5691 5692 5694 5696 5698 5700 5700 5702 5704 5706 5707 5708 5710 5712 5714 5716 5718 5718 5719 5720 5720 5722 5722 5724 5724 5726 5727 5728 5728 5728 5728 5730 5731 5733 5734 5736 5736 5736 5736 5736 5736 5736 5738 5739 5740 5741 5742 5742 5742 5742 5742 5742 5742 5742 5742 5742 5741 5740 5740 5740
5616 5618 5620 5622 5625 5627 5630 5632 5634 5638 5640 5643 5646 5650 5652 5654 5658 5660 5664 5667 5670 5673 5676 5678 5680 5684 5686 5688 5688 5690 5693 5696 5698 5699 5700 5702 5703 5704 5706 5707 5709 5710 5712 5714 5716 5716 5717 5718 5719 5720 5720 5722 5722 5723 5724 5724 5725 5726 5727 5729 5730 5731 5732 5733 5733 5734 5733 5733 5734 5736 5736 5738 5738 5738 5739 5740 5740 5740 5740 5740 5740 5739 5738 5738 5738 5738 5738
5616 5618 5621 5622 5624 5627 5629 5632 5634 5637 5640 5643 5646 5648 5650 5653 5656 5659 5662 5666 5668 5671 5674 5676 5678 5681 5683 5684 5686 5688 5690 5692 5695 5696 5698 5700 5700 5702 5703 5704 5706 5707 5709 5710 5712 5714 5715 5716 5716 5717 5718 5719 5720 5720 5721 5722 5722 5722 5725 5727 5728 5728 5729 5730 5730 5730 5730 5732 5732 5733 5734 5735 5736 5736 5736 5737 5737 5737 5737 5737 5737 5736 5736 5736 5736 5736 5735
5616 5619 5620 5622 5624 5626 5628 5631 5634 5636 5640 5642 5645 5647 5649 5652 5654 5658 5660 5664 5666 5669 5672 5674 5676 5678 5680 5681 5683 5685 5687 5689 5692 5694 5696 5697 5698 5700 5701 5702 5703 5704 5706 5707 5708 5710 5712 5713 5714 5714 5716 5716 5718 5718 5718 5718 5719 5720 5722 5724 5725 5726 5726 5727 5728 5728 5729 5730 5730 5731 5732 5732 5733 5734 5734 5734 5734 5734 5734 5734 5734 5734 5734 5733 5733 5732 5732
5616 5618 5620 5622 5624 5626 5628 5630 5633 5636 5638 5641 5643 5646 5648 5650 5653 5656 5658 5662 5664 5666 5669 5671 5674 5676 5677 5678 5680 5682 5684 5686 5688 5690 5692 5694 5696 5697 5698 5700 5700 5702 5702 5704 5706 5707 5708 5710 5711 5712 5712 5714 5714 5714 5715 5716 5716 5718 5720 5721 5722 5722 5724 5724 5726 5726 5727 5728 5728 5728 5730 5730 5730 5731 5731 5731 5732 5732 5732 5732 5732 5731 5731 5730 5730 5730 5730
5616 5618 5620 5622 5624 5626 5628 5630 5632 5635 5637 5640 5642 5644 5646 5648 5651 5654 5656 5660 5662 5664 5666 5668 5671 5673 5674 5676 5677 5679 5680 5682 5684 5686 5688 5690 5692 5693 5694 5696 5698 5698 5700 5702 5703 5704 5705 5706 5708 5708 5710 5710 5710 5711 5712 5713 5714 5716 5718 5718 5719 5720 5721 5722 5723 5724 5724 5725 5726 5726 5727 5728 5728 5728 5728 5728 5728 5728 5728 5728 5728 5728 5728 5728 5728 5727 5726
5616 5618 5620 5622 5624 5626 5628 5630 5632 5634 5636 5638 5640 5642 5644 5646 5649 5652 5654 5657 5659 5662 5664 5666 5668 5670 5672 5673 5674 5676 5678 5679 5681 5682 5684 5686 5688 5689 5690 5692 5694 5695 5696 5698 5700 5701 5702 5704 5704 5706 5706 5707 5708 5708 5710 5711 5712 5714 5715 5716 5716 5718 5718 5719 5720 5720 5722 5722 5723 5724 5724 5724 5725 5725 5725 5726 5726 5726 5726 5726 5725 5725 5725 5724 5724 5724 5724
5616 5618 5620 5622 5623 5625 5627 5629 5631 5633 5634 5636 5638 5640 5642 5644 5647 5649 5652 5654 5656 5659 5661 5664 5666 5668 5668 5670 5672 5673 5674 5676 5678 5679 5680 5682 5684 5685 5686 5688 5689 5690 5692 5694 5696 5698 5698 5700 5702 5702 5703 5704 5705 5706 5708 5708 5710 5712 5713 5714 5714 5715 5716 5716 5718 5718 5719 5720 5720 5721 5722 5722 5722 5722 5722 5722 5722 5722 5722 5722 5722 5722 5722 5722 5722 5721 5720
5616 5618 5619 5621 5622 5624 5626 5628 5630 5632 5633 5634 5636 5638 5640 5642 5644 5646 5649 5652 5654 5656 5658 5660 5662 5664 5664 5666 5667 5668 5670 5671 5673 5674 5676 5678 5680 5681 5682 5684 5684 5686 5688 5690 5692 5694 5694 5696 5698 5699 5700 5701 5702 5703 5704 5706 5707 5709 5710 5711 5712 5712 5713 5714 5714 5716 5716 5717 5718 5718 5718 5718 5718 5718 5719 5719 5719 5719 5719 5719 5719 5719 5719 5719 5718 5718 5718
5614 5616 5618 5620 5622 5623 5624 5626 5628 5630 5632 5632 5634 5636 5638 5640 5642 5644 5646 5649 5651 5653 5655 5656 5658 5659 5660 5661 5662 5662 5664 5666 5667 5669 5670 5672 5674 5677 5678 5680 5680 5682 5684 5686 5688 5690 5691 5692 5694 5695 5696 5698 5700 5700 5702 5702 5704 5706 5706 5708 5708 5710 5710 5711 5712 5712 5714 5714 5714 5715 5715 5716 5716 5716 5716 5716 5716 5716 5716 5716 5716 5716 5716 5716 5716 5716 5715
5612 5614 5616 5618 5619 5621 5622 5624 5626 5628 5629 5630 5632 5634 5636 5638 5640 5642 5644 5646 5648 5650 5652 5653 5654 5655 5656 5656 5658 5658 5660 5662 5662 5664 5665 5668 5670 5672 5674 5675 5676 5678 5680 5682 5684 5686 5688 5690 5690 5692 5693 5695 5696 5697 5698 5700 5701 5702 5704 5704 5706 5706 5707 5708 5708 5710 5710 5710 5712 5712 5712 5712 5712 5712 5712 5713 5714 5714 5714 5714 5714 5714 5714 5713 5713 5712 5712
5610 5612 5612 5614 5616 5618 5620 5622 5624 5626 5627 5628 5630 5632 5634 5636 5638 5640 5642 5644 5646 5648 5649 5650 5651 5652 5652 5653 5654 5656 5658 5659 5658 5660 5662 5664 5666 5668 5669 5670 5672 5674 5676 5678 5680 5682 5684 5686 5687 5688 5690 5692 5692 5694 5695 5696 5698 5699 5700 5701 5702 5703 5704 5704 5706 5706 5707 5708 5708 5709 5709 5709 5710 5710 5710 5710 5710 5710 5710 5710 5710 5710 5710 5710 5710 5710 5709
5608 5609 5610 5612 5614 5616 5618 5620 5622 5624 5625 5626 5628 5630 5631 5633 5635 5637 5639 5642 5643 5644 5646 5647 5648 5648 5649 5650 5651 5652 5654 5655 5656 5657 5660 5662 5663 5664 5665 5666 5668 5670 5672 5674 5676 5678 5680 5682 5683 5684 5686 5688 5688 5690 5691 5693 5694 5696 5697 5698 5698 5700 5700 5702 5702 5704 5704 5705 5706 5706 5706 5706 5706 5707 5708 5708 5708 5708 5708 5708 5708 5708 5708 5707 5707 5706 5706
5606 5607 5608 5610 5612 5614 5616 5618 5619 5621 5622 5624 5626 5627 5628 5630 5632 5634 5636 5638 5640 5642 5642 5644 5645 5646 5646 5648 5648 5649 5650 5652 5652 5654 5656 5658 5660 5661 5662 5663 5664 5666 5668 5669 5672 5674 5676 5678 5680 5680 5682 5684 5684 5686 5687 5690 5691 5692 5693 5694 5695 5696 5698 5698 5700 5700 5701 5702 5702 5703 5704 5704 5704 5704 5704 5704 5704 5704 5704 5704 5704 5704 5704 5704 5704 5704 5702
5604 5606 5607 5609 5610 5612 5614 5616 5617 5619 5620 5622 5623 5624 5626 5627 5628 5630 5632 5634 5636 5638 5640 5640 5642 5642 5643 5644 5645 5646 5648 5648 5650 5650 5652 5654 5656 5657 5658 5660 5660 5662 5664 5665 5668 5670 5672 5674 5676 5676 5678 5679 5680 5682 5684 5686 5687 5688 5690 5690 5692 5693 5694 5696 5696 5697 5698 5699 5700 5700 5700 5701 5701 5702 5702 5702 5702 5702 5702 5702 5702 5702 5702 5701 5700 5700 5700
5603 5604 5606 5608 5609 5611 5612 5614 5615 5616 5618 5620 5620 5622 5622 5624 5626 5628 5630 5631 5633 5634 5636 5637 5638 5638 5639 5640 5642 5643 5644 5646 5646 5647 5648 5650 5652 5654 5656 5656 5658 5658 5660 5662 5664 5666 5668 5670 5670 5672 5674 5676 5676 5678 5680 5682 5683 5684 5686 5688 5688 5690 5691 5692 5693 5694 5695 5696 5696 5697 5698 5698 5698 5698 5698 5698 5698 5698 5698 5698 5698 5698 5698 5698 5698 5697 5696
5602 5604 5605 5606 5608 5610 5611 5612 5613 5614 5616 5617 5618 5619 5620 5622 5624 5625 5626 5628 5630 5632 5633 5634 5635 5636 5636 5637 5638 5639 5640 5642 5643 5644 5646 5647 5648 5650 5652 5654 5654 5656 5656 5658 5660 5662 5664 5665 5666 5668 5670 5672 5673 5674 5676 5678 5680 5681 5682 5684 5686 5686 5688 5688 5690 5690 5692 5692 5693 5694 5694 5694 5694 5695 5695 5695 5695 5695 5695 5695 5695 5695 5695 5694 5694 5694 5692
5601 5602 5604 5604 5606 5608 5609 5610 5611 5612 5613 5614 5616 5616 5618 5619 5620 5622 5624 5625 5627 5628 5630 5631 5632 5632 5633 5634 5636 5636 5638 5639 5640 5641 5642 5644 5645 5647 5648 5650 5651 5652 5654 5655 5656 5658 5660 5661 5662 5665 5667 5668 5670 5671 5672 5674 5676 5677 5678 5680 5682 5683 5684 5685 5686 5687 5688 5688 5689 5690 5690 5691 5692 5692 5692 5692 5692 5692 5692 5692 5692 5692 5692 5691 5690 5690 5689
5600 5600 5602 5603 5604 5606 5607 5608 5609 5610 5611 5612 5613 5614 5616 5616 5618 5620 5621 5622 5624 5626 5627 5628 5628 5629 5630 5631 5632 5634 5635 5636 5638 5638 5640 5640 5642 5644 5645 5646 5648 5650 5651 5652 5654 5655 5656 5658 5660 5662 5663 5664 5666 5667 5668 5670 5672 5673 5674 5676 5678 5679 5680 5682 5682 5684 5684 5686 5686 5686 5688 5688 5688 5688 5688 5688 5688 5688 5688 5688 5688 5688 5688 5688 5686 5686 5686
5598 5599 5600 5602 5602 5604 5605 5606 5607 5608 5609 5610 5611 5612 5613 5614 5616 5617 5618 5620 5621 5622 5624 5624 5626 5626 5627 5628 5629 5630 5632 5634 5635 5636 5636 5638 5639 5640 5642 5643 5644 5646 5648 5648 5650 5652 5653 5654 5656 5658 5660 5661 5662 5663 5664 5666 5668 5668 5670 5672 5674 5675 5676 5678 5679 5680 5682 5682 5682 5684 5684 5684 5684 5685 5685 5685 5685 5685 5684 5684 5684 5684 5684 5684 5683 5682 5682
5596 5598 5598 5600 5600 5602 5603 5604 5605 5606 5607 5608 5609 5610 5610 5612 5613 5614 5616 5617 5618 5620 5621 5622 5622 5624 5624 5626 5626 5628 5629 5630 5632 5632 5634 5634 5636 5637 5638 5640 5642 5643 5644 5646 5647 5648 5650 5652 5653 5654 5656 5658 5659 5660 5661 5662 5664 5665 5666 5668 5669 5670 5672 5674 5676 5676 5678 5678 5679 5680 5680 5680 5681 5682 5682 5682 5682 5682 5682 5681 5681 5680 5680 5680 5679 5678 5678
5595 5596 5597 5598 5599 5600 5600 5602 5602 5604 5604 5606 5606 5608 5608 5610 5610 5612 5613 5614 5616 5617 5618 5619 5620 5621 5622 5623 5624 5625 5626 5627 5628 5630 5630 5632 5632 5634 5636 5637 5638 5640 5641 5642 5644 5646 5647 5648 5650 5650 5652 5654 5656 5657 5658 5658 5660 5661 5662 5664 5665 5666 5668 5670 5672 5672 5674 5674 5675 5676 5676 5676 5678 5678 5678 5678 5678 5678 5678 5678 5677 5676 5676 5676 5675 5675 5674
5594 5594 5596 5596 5597 5598 5598 5600 5600 5601 5602 5603 5604 5605 5606 5608 5608 5610 5611 5612 5614 5614 5616 5616 5617 5618 5619 5620 5621 5622 5623 5624 5625 5626 5627 5628 5630 5630 5632 5634 5636 5636 5638 5640 5642 5643 5644 5645 5646 5647 5649 5651 5652 5654 5654 5655 5656 5656 5658 5660 5661 5663 5664 5666 5668 5668 5670 5670 5670 5671 5672 5672 5673 5673 5674 5674 5674 5674 5674 5674 5673 5672 5672 5672 5672 5671 5670
5592 5593 5594 5594 5595 5596 5596 5598 5598 5599 5600 5600 5602 5602 5604 5605 5606 5608 5608 5610 5610 5612 5612 5613 5614 5615 5616 5617 5618 5619 5620 5622 5622 5623 5624 5625 5626 5628 5629 5630 5632 5634 5635 5636 5638 5640 5640 5641 5642 5644 5646 5647 5648 5650 5651 5652 5652 5653 5654 5656 5657 5659 5660 5662 5663 5664 5664 5665 5666 5666 5667 5668 5668 5668 5670 5670 5670 5670 5670 5670 5670 5669 5668 5668 5667 5667 5666
5590 5591 5592 5592 5593 5594 5594 5595 5596 5596 5598 5598 5599 5600 5601 5602 5604 5604 5606 5606 5608 5608 5610 5610 5611 5612 5612 5614 5615 5616 5617 5618 5620 5620 5622 5622 5623 5624 5626 5628 5629 5630 5632 5633 5634 5636 5636 5638 5638 5640 5642 5644 5644 5646 5646 5648 5648 5650 5650 5652 5654 5655 5656 5658 5658 5659 5660 5660 5660 5662 5662 5662 5663 5664 5664 5665 5665 5666 5666 5666 5665 5665 5664 5664 5663 5662 5662
5589 5590 5590 5590 5590 5591 5592 5592 5594 5594 5595 5596 5597 5598 5598 5599 5600 5601 5602 5603 5604 5606 5606 5607 5608 5609 5610 5610 5612 5612 5614 5615 5616 5618 5618 5620 5620 5622 5622 5624 5625 5626 5628 5629 5630 5632 5632 5634 5634 5636 5637 5638 5640 5641 5642 5644 5644 5645 5646 5648 5649 5650 5651 5652 5652 5653 5654 5654 5654 5655 5656 5656 5658 5658 5659 5660 5660 5660 5661 5661 5661 5660 5660 5660 5659 5658 5658
5587 5588 5588 5588 5588 5589 5590 5590 5591 5592 5592 5594 5594 5595 5596 5596 5597 5598 5598 5600 5600 5602 5603 5604 5605 5606 5606 5608 5608 5610 5610 5612 5613 5614 5616 5616 5618 5618 5620 5620 5622 5622 5624 5625 5626 5627 5628 5629 5630 5631 5632 5634 5635 5636 5638 5639 5640 5640 5642 5643 5644 5644 5645 5646 5646 5647 5648 5648 5648 5650 5650 5652 5652 5653 5654 5654 5654 5656 5656 5656 5656 5656 5656 5655 5654 5654 5653
5585 5586 5586 5586 5586 5587 5588 5588 5588 5590 5590 5592 5592 5593 5594 5594 5594 5595 5596 5596 5598 5599 5600 5601 5602 5603 5604 5604 5605 5606 5607 5608 5610 5611 5612 5614 5614 5616 5616 5617 5618 5619 5620 5621 5622 5623 5624 5625 5626 5626 5628 5630 5630 5632 5632 5634 5635 5636 5637 5638 5638 5638 5640 5640 5642 5642 5644 5644 5645 5646 5647 5648 5648 5648 5648 5649 5650 5650 5651 5651 5652 5651 5651 5650 5650 5649 5648
5584 5584 5584 5584 5585 5585 5586 5586 5586 5588 5588 5589 5590 5590 5592 5592 5592 5593 5594 5594 5596 5596 5598 5598 5599 5600 5600 5602 5602 5604 5604 5605 5606 5608 5609 5610 5611 5612 5613 5614 5614 5616 5616 5618 5618 5620 5620 5621 5622 5622 5624 5624 5626 5626 5628 5628 5630 5631 5632 5632 5633 5634 5634 5636 5636 5638 5638 5640 5640 5642 5642 5642 5642 5643 5644 5645 5646 5646 5646 5646 5646 5646 5646 5646 5646 5645 5644
5582 5582 5582 5582 5583 5584 5584 5584 5586 5586 5586 5588 5588 5588 5589 5590 5590 5591 5592 5592 5593 5594 5595 5596 5596 5597 5598 5599 5600 5600 5602 5602 5604 5604 5606 5606 5607 5608 5610 5610 5611 5612 5613 5614 5615 5616 5616 5617 5618 5618 5619 5620 5620 5622 5622 5624 5625 5626 5627 5628 5628 5629 5630 5630 5632 5632 5634 5634 5635 5636 5636 5636 5637 5638 5639 5640 5641 5642 5642 5642 5642 5642 5642 5642 5642 5641 5640
5580 5581 5581 5582 5582 5582 5582 5583 5584 5584 5585 5586 5586 5586 5587 5588 5588 5588 5590 5590 5591 5592 5592 5593 5594 5594 5596 5596 5597 5598 5599 5600 5600 5602 5602 5603 5604 5604 5606 5606 5608 5608 5610 5610 5611 5612 5612 5613 5614 5614 5614 5615 5616 5616 5618 5618 5620 5620 5621 5622 5623 5624 5624 5625 5626 5628 5628 5629 5630 5630 5631 5632 5632 5634 5634 5636 5636 5637 5637 5637 5637 5638 5638 5638 5638 5637 5636
5580 5580 5580 5580 5580 5581 5581 5582 5582 5582 5583 5584 5584 5584 5585 5586 5586 5586 5587 5588 5588 5589 5590 5590 5591 5592 5592 5594 5594 5595 5596 5597 5598 5598 5598 5600 5600 5601 5602 5604 5604 5605 5606 5606 5607 5608 5608 5608 5609 5610 5610 5610 5612 5612 5613 5614 5614 5615 5616 5616 5617 5618 5618 5620 5621 5622 5623 5624 5624 5625 5626 5627 5628 5630 5630 5632 5632 5632 5632 5633 5633 5633 5634 5633 5633 5632 5632
5578 5578 5579 5580 5580 5580 5580 5580 5581 5582 5582 5582 5582 5582 5583 5584 5584 5584 5585 5586 5586 5586 5587 5588 5588 5589 5590 5590 5591 5592 5592 5593 5594 5594 5595 5596 5596 5598 5598 5600 5600 5601 5602 5602 5603 5604 5604 5604 5604 5605 5606 5606 5607 5608 5608 5609 5609 5609 5609 5610 5610 5612 5613 5614 5616 5616 5618 5618 5620 5620 5622 5622 5624 5626 5626 5627 5628 5628 5628 5628 5629 5629 5629 5629 5628 5628 5628
5577 5578 5578 5578 5578 5579 5580 5580 5580 5580 5580 5581 5581 5582 5582 5582 5582 5582 5582 5583 5584 5584 5584 5585 5586 5586 5586 5587 5588 5588 5588 5589 5590 5590 5591 5592 5592 5593 5594 5595 5596 5597 5598 5598 5600 5600 5600 5600 5600 5600 5601 5602 5603 5604 5604 5604 5604 5604 5604 5605 5606 5606 5608 5609 5610 5612 5612 5614 5615 5616 5617 5618 5620 5621 5622 5622 5623 5624 5624 5624 5624 5625 5624 5624 5624 5624 5624
5576 5576 5576 5577 5578 5578 5578 5578 5578 5579 5580 5580 5580 5580 5580 5580 5581 5581 5581 5581 5582 5582 5582 5582 5582 5583 5584 5584 5584 5584 5585 5585 5586 5586 5587 5588 5588 5589 5590 5590 5592 5593 5594 5594 5595 5596 5596 5596 5596 5596 5597 5598 5599 5600 5600 5601 5601 5601 5602 5602 5602 5603 5604 5605 5606 5607 5608 5610 5610 5612 5614 5614 5616 5616 5618 5618 5619 5620 5620 5620 5620 5620 5620 5620 5620 5620 5620
5574 5574 5575 5576 5576 5576 5577 5577 5578 5578 5578 5578 5579 5579 5579 5579 5580 5580 5580 5580 5580 5580 5580 5580 5580 5580 5580 5580 5580 5581 5582 5582 5582 5582 5583 5584 5584 5585 5586 5586 5588 5588 5590 5590 5591 5592 5592 5592 5592 5593 5594 5595 5596 5596 5597 5598 5598 5598 5598 5599 5600 5600 5600 5602 5602 5604 5604 5606 5608 5609 5610 5611 5612 5613 5614 5614 5615 5616 5616 5616 5616 5616 5616 5616 5616 5616 5614
5574 5574 5574 5574 5574 5575 5576 5576 5576 5576 5577 5577 5578 5578 5578 5578 5578 5578 5578 5578 5578 5578 5578 5578 5578 5578 5578 5578 5578 5578 5578 5578 5578 5578 5579 5580 5580 5581 5582 5582 5583 5584 5584 5586 5586 5588 5588 5588 5589 5590 5591 5592 5592 5593 5594 5594 5594 5595 5596 5596 5596 5597 5598 5599 5600 5600 5602 5603 5604 5606 5607 5608 5608 5610 5610 5610 5611 5611 5612 5612 5612 5612 5612 5612 5611 5610 5610
5572 5572 5572 5572 5573 5573 5574 5574 5574 5575 5576 5576 5576 5576 5576 5576 5576 5576 5576 5576 5576 5576 5576 5576 5576 5576 5576 5575 5575 5575 5574 5574 5574 5574 5574 5575 5576 5577 5578 5578 5578 5580 5580 5580 5582 5583 5584 5584 5584 5586 5587 5588 5588 5589 5590 5590 5592 5592 5592 5594 5594 5594 5596 5596 5598 5598 5600 5600 5602 5603 5604 5604 5605 5606 5606 5606 5607 5608 5608 5608 5608 5608 5607 5606 5606 5606 5605
5570 5570 5570 5570 5571 5572 5572 5572 5572 5573 5574 5574 5574 5574 5574 5574 5574 5574 5574 5574 5574 5574 5574 5574 5574 5573 5573 5572 5572 5572 5572 5572 5572 5571 5570 5571 5572 5572 5573 5574 5574 5574 5576 5576 5577 5578 5580 5580 5580 5582 5582 5584 5584 5585 5586 5587 5588 5588 5590 5590 5591 5592 5593 5594 5595 5596 5597 5598 5599 5600 5600 5601 5602 5602 5602 5602 5603 5603 5603 5603 5603 5603 5602 5602 5602 5601 5601
5568 5568 5568 5568 5569 5570 5570 5570 5570 5570 5571 5572 5572 5572 5572 5572 5572 5572 5572 5572 5572 5572 5572 5571 5571 5570 5570 5570 5570 5570 5570 5569 5568 5568 5568 5567 5568 5568 5568 5570 5570 5570 5571 5572 5573 5574 5575 5576 5576 5577 5578 5579 5580 5581 5582 5583 5584 5585 5586 5587 5588 5588 5590 5590 5592 5592 5594 5594 5595 5596 5596 5597 5598 5598 5598 5598 5598 5598 5598 5598 5598 5598 5598 5598 5597 5597 5597
5566 5566 5566 5566 5567 5568 5568 5568 5568 5568 5568 5569 5570 5570 5570 5570 5570 5570 5570 5569 5569 5568 5568 5568 5568 5568 5568 5567 5567 5567 5566 5566 5566 5565 5564 5564 5564 5564 5564 5565 5566 5567 5568 5568 5569 5570 5570 5572 5572 5573 5574 5575 5576 5577 5578 5579 5580 5581 5582 5584 5584 5585 5586 5587 5588 5588 5590 5590 5590 5592 5592 5592 5593 5593 5594 5594 5594 5594 5594 5594 5594 5594 5594 5593 5593 5593 5592